[[{"header":{"parameterUnit":"m.s-1","parameterCategory":1,"la1":30.2991,"la2":30.254,"lo1":-89.0895,"lo2":-89.0444,"dy":0.0017,"dx":0.0017,"nx":28,"ny":28,"refTime":"2023-09-17T03:00:00:Z","depth":0,"parameterNumber":2,"parameterNumberName":"U-component_of_WINDS"},"data":[0,0,0,0,0,0,0,0,0,0,0,0,0,0,0,0,0,0,0,0,0,0,0,0,0,0,0,0,0,0,0,0,0,0,0,0,0,0,0,0,0,0,0,0,0,0,0,0,0,0,0,0,0,0,0,0,0,0,1.5346,1.5346,0,1.5324,1.5324,1.5324,1.5256,1.5254,1.5253,1.5251,1.5229,1.523,1.5231,0,0,0,0,0,0,0,0,0,0,0,0,0,1.5333,1.5334,1.5347,1.5346,1.5346,1.5324,1.5324,1.5324,1.5256,1.5254,1.5252,1.5251,1.5229,1.523,1.5231,0,0,0,0,0,0,0,0,0,0,0,0,0,1.5328,1.5334,1.5347,1.531,1.5306,1.5324,1.5324,1.5323,1.5256,1.5254,1.5252,1.525,1.5229,1.523,1.5231,1.5284,0,0,1.5235,1.5236,0,0,0,0,0,0,0,0,1.5328,1.5328,1.5315,1.5312,1.5308,1.529,1.5311,1.531,1.5257,1.5275,1.5251,1.5249,1.5252,1.5251,1.5252,1.5283,1.5282,1.5235,1.5236,1.5236,1.5237,0,0,0,0,0,0,0,1.5329,1.5329,1.5338,1.5315,1.5311,1.5295,1.5292,1.5311,1.5276,1.5273,1.5268,1.5267,1.5249,1.5251,1.5251,1.5282,1.5235,1.5236,1.5237,1.5237,1.5357,1.5359,0,0,0,0,0,0,1.5334,1.533,1.5338,1.5337,1.5313,1.5297,1.5293,1.5298,1.5276,1.527,1.5269,1.5264,1.525,1.5249,1.525,1.5311,1.5236,1.5238,1.5238,1.5355,1.5357,1.536,0,0,0,0,0,0,1.5334,1.5335,1.5339,1.5332,1.5331,1.53,1.5306,1.5299,1.53,1.5272,1.5266,1.5276,1.5248,1.5248,1.5276,1.5309,1.5238,1.5239,1.5352,1.5355,1.5359,1.5433,0,0,0,0,0,0,1.5334,1.5336,1.5355,1.5333,1.5332,1.5366,1.5308,1.53,1.5302,1.5296,1.5278,1.5273,1.5246,1.5275,1.5277,1.5309,1.524,1.5349,1.5353,1.5358,1.5427,1.5439,1.5448,0,0,0,0,0,1.5334,1.5376,1.5356,1.5357,1.5355,1.5368,1.5367,1.5335,1.5305,1.5325,1.5307,1.5273,1.5305,1.5278,1.5281,1.5313,1.5346,1.5352,1.5357,1.5423,1.5436,1.5448,0,0,0,0,0,0,1.5402,1.5373,1.535,1.5386,1.538,1.5356,1.5379,1.5351,1.5353,1.5347,1.5308,1.5304,1.5339,1.5329,1.5299,1.5364,1.532,1.5327,1.5369,1.5382,1.5392,1.5394,1.5241,0,0,0,0,0,1.5422,1.5434,1.5408,1.5443,1.5441,1.5411,1.5415,1.5392,1.5384,1.5381,1.5365,1.5359,1.5368,1.5374,1.5381,1.5426,1.5422,1.545,1.546,1.5469,1.5475,1.5499,1.5512,1.5378,1.5378,1.5378,0,0,1.5462,1.5447,1.5458,1.5456,1.5449,1.5463,1.5409,1.5426,1.5437,1.5383,1.5409,1.5398,1.5389,1.5426,1.5442,1.5419,1.5511,1.5476,1.5483,1.5484,1.5506,1.5519,1.553,1.5382,1.5381,1.5381,0,0,1.5543,1.5533,1.5561,1.5555,1.5545,1.5525,1.5532,1.5513,1.5503,1.5529,1.5489,1.5502,1.5517,1.5513,1.5513,1.5595,1.5564,1.5598,1.5653,1.5677,1.5688,1.5697,1.5727,1.5738,1.5604,1.5604,1.5604,0,1.5594,1.5614,1.558,1.56,1.5602,1.5554,1.5584,1.558,1.5572,1.5574,1.5549,1.5569,1.5559,1.5596,1.5616,1.5617,1.5625,1.56,1.5689,1.5698,1.5706,1.5734,1.5745,1.5609,1.5608,1.5608,1.5607,0,1.5679,1.5693,1.5718,1.5712,1.5716,1.5741,1.5711,1.572,1.5697,1.568,1.5708,1.5695,1.5699,1.5706,1.5683,1.574,1.5726,1.5696,1.5651,1.5723,1.5749,1.576,1.5615,1.5613,1.5612,1.5611,0,0,1.58,1.5777,1.5786,1.5784,1.5769,1.578,1.5804,1.5808,1.5817,1.5814,1.5833,1.5848,1.5821,1.5821,1.5797,1.5819,1.5886,1.5786,1.5785,1.5805,1.5949,1.5973,1.5986,1.5866,1.5868,1.587,1.595,0,1.5877,1.5916,1.5887,1.5931,1.5944,1.5901,1.5922,1.5916,1.5902,1.5912,1.5896,1.5908,1.587,1.587,1.589,1.5874,1.5915,1.5868,1.5885,1.5886,1.5888,1.5999,1.6023,1.61,1.596,1.5962,1.5963,0,1.5972,1.5973,1.6019,1.6003,1.6008,1.6027,1.6029,1.604,1.6033,1.6021,1.6023,1.5994,1.6018,1.5974,1.6006,1.5975,1.5981,1.5975,1.5977,1.5977,1.5929,1.6003,1.6123,1.6135,1.5979,1.5977,1.5976,0,1.6057,1.6071,1.61,1.6099,1.6082,1.6096,1.609,1.6081,1.6086,1.6088,1.6091,1.6096,1.6099,1.6104,1.6079,1.6049,1.6115,1.6069,1.6107,1.6108,1.6122,1.6121,1.6246,1.6126,1.6126,1.6125,1.6125,0,1.6146,1.6176,1.6138,1.6156,1.6189,1.6156,1.619,1.6179,1.6172,1.6188,1.615,1.6166,1.6131,1.6144,1.6125,1.6155,1.6157,1.6149,1.6143,1.6152,1.6153,1.6155,1.6149,1.6128,1.6128,1.6127,1.6127,0,1.6246,1.6222,1.6251,1.6233,1.6229,1.6254,1.6239,1.6256,1.624,1.6261,1.6264,1.6239,1.6252,1.6227,1.6237,1.6224,1.6267,1.6253,1.627,1.6266,1.6305,1.6302,1.6435,1.6451,1.632,1.6322,1.6323,0,1.6304,1.6326,1.6311,1.6319,1.6315,1.6328,1.6333,1.6302,1.6309,1.6305,1.6322,1.6333,1.6339,1.6363,1.6346,1.6354,1.6341,1.6387,1.6341,1.635,1.6342,1.6341,1.6344,1.6396,1.6397,1.6399,1.64,0,1.641,1.6398,1.6406,1.6412,1.6419,1.6421,1.6421,1.643,1.6398,1.6408,1.6421,1.6427,1.6438,1.6449,1.6453,1.6447,1.6419,1.6414,1.6424,1.6433,1.6442,1.6438,1.6295,1.6411,1.641,1.6409,1.6409,1.6408,1.6491,1.651,1.6502,1.6513,1.651,1.6512,1.6527,1.6513,1.6524,1.653,1.6512,1.653,1.6525,1.6528,1.6526,1.654,1.652,1.6533,1.6536,1.654,1.6547,1.644,1.6541,1.654,1.654,1.654,1.6539,0,1.6596,1.659,1.6601,1.6602,1.6612,1.6584,1.6583,1.6593,1.6609,1.6607,1.6615,1.6631,1.6642,1.6627,1.6636,1.6651,1.6638,1.6654,1.6653,1.6652,1.6564,1.6555,1.6665,1.6665,1.6665,1.6665,1.6665,1.6665,1.6652,1.6681,1.6669,1.6697,1.669,1.6708,1.671,1.6712,1.671,1.673,1.6739,1.6729,1.6722,1.6731,1.674,1.6736,1.6741,1.6762,1.6753,1.6671,1.6658,1.6647,1.6638,1.6763,1.6764,1.684,1.6841,1.6842]},{"header":{"parameterUnit":"m.s-1","parameterCategory":1,"la1":30.2991,"la2":30.254,"lo1":-89.0895,"lo2":-89.0444,"dy":0.0017,"dx":0.0017,"nx":28,"ny":28,"refTime":"2023-09-17T03:00:00:Z","depth":0,"parameterNumber":3,"parameterNumberName":"V-component_of_WINDS"},"data":[0,0,0,0,0,0,0,0,0,0,0,0,0,0,0,0,0,0,0,0,0,0,0,0,0,0,0,0,0,0,0,0,0,0,0,0,0,0,0,0,0,0,0,0,0,0,0,0,0,0,0,0,0,0,0,0,0,0,-3.5538,-3.554,0,-3.5642,-3.5643,-3.5644,-3.5672,-3.5671,-3.567,-3.567,-3.577,-3.5773,-3.5777,0,0,0,0,0,0,0,0,0,0,0,0,0,-3.5361,-3.5364,-3.5538,-3.554,-3.5541,-3.5642,-3.5643,-3.5644,-3.5672,-3.5671,-3.567,-3.567,-3.5769,-3.5773,-3.5777,0,0,0,0,0,0,0,0,0,0,0,0,0,-3.5449,-3.5365,-3.5538,-3.5567,-3.557,-3.5641,-3.5643,-3.5645,-3.5672,-3.5671,-3.567,-3.5669,-3.5768,-3.5773,-3.5777,-3.5826,0,0,-3.5792,-3.5794,0,0,0,0,0,0,0,0,-3.5444,-3.5455,-3.5561,-3.5565,-3.5569,-3.5643,-3.5617,-3.5705,-3.5672,-3.5633,-3.567,-3.5669,-3.5728,-3.5736,-3.5758,-3.583,-3.5835,-3.5793,-3.5796,-3.5798,-3.5799,0,0,0,0,0,0,0,-3.5438,-3.5451,-3.5579,-3.5563,-3.5568,-3.5573,-3.5585,-3.5634,-3.5684,-3.5636,-3.5639,-3.5651,-3.573,-3.5753,-3.576,-3.5836,-3.5793,-3.5797,-3.58,-3.5802,-3.5956,-3.5957,0,0,0,0,0,0,-3.5427,-3.5446,-3.5576,-3.5582,-3.5503,-3.5577,-3.559,-3.562,-3.5684,-3.5693,-3.5652,-3.5652,-3.5745,-3.5754,-3.5764,-3.5826,-3.5798,-3.5802,-3.5805,-3.5955,-3.5956,-3.5957,0,0,0,0,0,0,-3.5423,-3.5439,-3.5572,-3.5515,-3.5532,-3.5581,-3.5615,-3.5623,-3.5645,-3.5695,-3.5704,-3.5666,-3.5745,-3.5757,-3.5811,-3.583,-3.5804,-3.5809,-3.5953,-3.5955,-3.5957,-3.595,0,0,0,0,0,0,-3.5418,-3.5437,-3.5456,-3.5515,-3.5535,-3.5618,-3.5616,-3.5625,-3.5654,-3.5656,-3.5711,-3.5719,-3.5745,-3.5804,-3.5816,-3.5836,-3.5813,-3.5952,-3.5954,-3.5956,-3.5949,-3.5952,-3.5954,0,0,0,0,0,-3.5412,-3.5449,-3.5457,-3.5473,-3.5561,-3.5619,-3.5631,-3.5661,-3.5656,-3.5675,-3.5708,-3.5717,-3.5826,-3.5809,-3.5823,-3.5845,-3.5951,-3.5953,-3.5956,-3.5948,-3.5951,-3.5954,0,0,0,0,0,0,-3.5389,-3.5457,-3.5467,-3.5524,-3.5566,-3.5624,-3.5649,-3.5663,-3.5705,-3.5705,-3.5739,-3.5751,-3.5803,-3.5829,-3.5809,-3.5896,-3.5888,-3.5894,-3.5878,-3.5881,-3.5883,-3.5876,-3.5817,0,0,0,0,0,-3.5391,-3.5434,-3.5491,-3.5536,-3.5557,-3.5599,-3.5626,-3.5646,-3.569,-3.5707,-3.5743,-3.5784,-3.5828,-3.5856,-3.5898,-3.5953,-3.5966,-3.5975,-3.5978,-3.5979,-3.5984,-3.6017,-3.6022,-3.5966,-3.5966,-3.5966,0,0,-3.5394,-3.5437,-3.5462,-3.5532,-3.5567,-3.5611,-3.5614,-3.5659,-3.5692,-3.5713,-3.5768,-3.5796,-3.5844,-3.5899,-3.5925,-3.5922,-3.6002,-3.5983,-3.5984,-3.5988,-3.602,-3.6025,-3.603,-3.5968,-3.5968,-3.5967,0,0,-3.5424,-3.5461,-3.5504,-3.5539,-3.5593,-3.5621,-3.5631,-3.5688,-3.5708,-3.5764,-3.5782,-3.582,-3.5894,-3.5928,-3.5955,-3.6,-3.6011,-3.6013,-3.6026,-3.6057,-3.6062,-3.6066,-3.6084,-3.609,-3.6017,-3.6017,-3.6017,0,-3.5422,-3.549,-3.5523,-3.5569,-3.56,-3.5624,-3.5668,-3.57,-3.5763,-3.5784,-3.578,-3.5875,-3.5909,-3.5974,-3.5985,-3.6006,-3.6019,-3.6007,-3.6059,-3.6063,-3.6068,-3.6085,-3.6091,-3.6017,-3.6017,-3.6017,-3.6017,0,-3.5485,-3.5532,-3.556,-3.5624,-3.5658,-3.5702,-3.5742,-3.5772,-3.5789,-3.5818,-3.5875,-3.5916,-3.5969,-3.5986,-3.6002,-3.6053,-3.605,-3.6052,-3.6045,-3.6073,-3.609,-3.6096,-3.6017,-3.6017,-3.6017,-3.6017,0,0,-3.5503,-3.5587,-3.5597,-3.5627,-3.5689,-3.5725,-3.577,-3.5824,-3.585,-3.5893,-3.5933,-3.5996,-3.5999,-3.603,-3.605,-3.6078,-3.6113,-3.6077,-3.6078,-3.6083,-3.6175,-3.6174,-3.6181,-3.6121,-3.6122,-3.6123,-3.6171,0,-3.5542,-3.5627,-3.5659,-3.5727,-3.5772,-3.5796,-3.5836,-3.5877,-3.5906,-3.5947,-3.5977,-3.6023,-3.6022,-3.6041,-3.607,-3.6103,-3.6132,-3.61,-3.6158,-3.6159,-3.6147,-3.619,-3.6189,-3.6232,-3.6178,-3.6179,-3.618,0,-3.5598,-3.5646,-3.5719,-3.5778,-3.5798,-3.5833,-3.5886,-3.5925,-3.5973,-3.5992,-3.6028,-3.6047,-3.6095,-3.6085,-3.6152,-3.6129,-3.6155,-3.6175,-3.6177,-3.6184,-3.6172,-3.62,-3.6246,-3.6253,-3.619,-3.6189,-3.6189,0,-3.5606,-3.5688,-3.5743,-3.5768,-3.5837,-3.5862,-3.5892,-3.5939,-3.597,-3.6016,-3.6036,-3.6086,-3.6113,-3.6151,-3.6183,-3.6172,-3.6248,-3.624,-3.6266,-3.6265,-3.6281,-3.628,-3.6334,-3.6295,-3.6295,-3.6295,-3.6295,0,-3.5647,-3.5692,-3.5748,-3.5782,-3.5833,-3.587,-3.5919,-3.595,-3.5992,-3.6032,-3.6055,-3.6092,-3.6131,-3.6173,-3.6198,-3.6251,-3.6263,-3.628,-3.6286,-3.6279,-3.6277,-3.6296,-3.6295,-3.6297,-3.6296,-3.6296,-3.6295,0,-3.5665,-3.5705,-3.5767,-3.5828,-3.5845,-3.588,-3.5932,-3.5966,-3.5996,-3.6047,-3.606,-3.6107,-3.6158,-3.6194,-3.6258,-3.6275,-3.6333,-3.6338,-3.6318,-3.6321,-3.6345,-3.6343,-3.6415,-3.6427,-3.6379,-3.6379,-3.6379,0,-3.5689,-3.5725,-3.5791,-3.5821,-3.5851,-3.5898,-3.5931,-3.5968,-3.6001,-3.606,-3.6086,-3.6139,-3.6184,-3.6264,-3.6303,-3.6353,-3.636,-3.6382,-3.6368,-3.636,-3.6363,-3.6361,-3.6365,-3.6384,-3.6385,-3.6385,-3.6385,0,-3.5729,-3.5747,-3.5794,-3.5849,-3.5888,-3.5933,-3.5977,-3.5999,-3.6044,-3.608,-3.6134,-3.6168,-3.6236,-3.6289,-3.6343,-3.6372,-3.6387,-3.639,-3.6399,-3.6392,-3.6379,-3.6388,-3.6325,-3.6388,-3.6388,-3.6387,-3.6387,-3.6387,-3.5752,-3.5785,-3.5838,-3.589,-3.5928,-3.597,-3.6006,-3.6041,-3.6088,-3.6147,-3.6166,-3.6222,-3.627,-3.6345,-3.6375,-3.6419,-3.6418,-3.643,-3.6433,-3.6436,-3.6437,-3.6372,-3.6429,-3.6429,-3.6428,-3.6428,-3.6428,0,-3.5794,-3.583,-3.5878,-3.5941,-3.5982,-3.5994,-3.6044,-3.6077,-3.6127,-3.6172,-3.6216,-3.6279,-3.633,-3.6374,-3.6428,-3.6454,-3.6462,-3.6467,-3.6466,-3.6473,-3.6434,-3.6422,-3.646,-3.646,-3.646,-3.646,-3.646,-3.646,-3.5821,-3.5879,-3.5904,-3.5982,-3.6017,-3.6074,-3.6102,-3.614,-3.6176,-3.6246,-3.629,-3.6319,-3.6364,-3.6421,-3.6469,-3.648,-3.6499,-3.6503,-3.6516,-3.6479,-3.6476,-3.6472,-3.6461,-3.6507,-3.6507,-3.6552,-3.6552,-3.6553]}]]